| time (UTC) | temp C | wind direction | speed KPH | gust KPH | rain 1hr cm | rain 24hr cm | rain mn cm | humidity % | barometer mb |
| 20260510175636 | 15 | 0 | 14.5 | 27.4 | 0.00 | 0.00 | 0.00 | 59 | 1023.4 |
| 20260510174556 | 15 | 0 | 11.3 | 29.0 | 0.00 | 0.00 | 0.00 | 61 | 1023.4 |
| 20260510173516 | 15 | 0 | 19.3 | 29.0 | 0.00 | 0.00 | 0.00 | 61 | 1023.5 |
| 20260510172636 | 14 | 0 | 14.5 | 29.0 | 0.00 | 0.00 | 0.00 | 62 | 1023.1 |
| 20260510170556 | 13 | 0 | 14.5 | 25.7 | 0.00 | 0.00 | 0.00 | 63 | 1022.6 |
| 20260510164516 | 14 | 0 | 19.3 | 30.6 | 0.00 | 0.00 | 0.00 | 62 | 1022.5 |
| 20260510163516 | 14 | 0 | 12.9 | 30.6 | 0.00 | 0.00 | 0.00 | 61 | 1022.5 |
| 20260510162556 | 14 | 0 | 20.9 | 43.5 | 0.00 | 0.00 | 0.00 | 60 | 1022.1 |
| 20260510161556 | 13 | 0 | 24.1 | 45.1 | 0.00 | 0.00 | 0.00 | 60 | 1021.6 |
| 20260510160556 | 13 | 0 | 19.3 | 40.2 | 0.00 | 0.00 | 0.00 | 60 | 1021.8 |
| 20260510155516 | 14 | 0 | 25.7 | 37.0 | 0.00 | 0.00 | 0.00 | 60 | 1021.8 |
| 20260510154516 | 14 | 0 | 25.7 | 37.0 | 0.00 | 0.00 | 0.00 | 58 | 1022.1 |
| 20260510153516 | 14 | 0 | 25.7 | 40.2 | 0.00 | 0.00 | 0.00 | 58 | 1021.8 |
| 20260510152636 | 14 | 0 | 19.3 | 37.0 | 0.00 | 0.00 | 0.00 | 58 | 1021.9 |
| 20260510151556 | 15 | 0 | 16.1 | 38.6 | 0.00 | 0.00 | 0.00 | 58 | 1021.6 |
| 20260510150636 | 14 | 0 | 24.1 | 35.4 | 0.00 | 0.00 | 0.00 | 59 | 1021.3 |
| 20260510145556 | 13 | 0 | 17.7 | 35.4 | 0.00 | 0.00 | 0.00 | 61 | 1021.1 |
| 20260510144556 | 13 | 0 | 20.9 | 33.8 | 0.00 | 0.00 | 0.00 | 61 | 1020.9 |
| 20260510143516 | 13 | 0 | 17.7 | 37.0 | 0.00 | 0.00 | 0.00 | 62 | 1020.7 |
| 20260510142516 | 13 | 0 | 17.7 | 35.4 | 0.00 | 0.00 | 0.00 | 62 | 1020.6 |
| 20260510141636 | 12 | 0 | 19.3 | 38.6 | 0.00 | 0.00 | 0.00 | 63 | 1020.8 |
| 20260510140516 | 12 | 0 | 19.3 | 32.2 | 0.00 | 0.00 | 0.00 | 63 | 1021.3 |
| 20260510135516 | 13 | 0 | 14.5 | 25.7 | 0.00 | 0.00 | 0.00 | 63 | 1021.4 |
| 20260510134556 | 12 | 0 | 16.1 | 24.1 | 0.00 | 0.00 | 0.00 | 63 | 1021.3 |
| 20260510133556 | 12 | 0 | 14.5 | 25.7 | 0.00 | 0.00 | 0.00 | 63 | 1021.4 |
| 20260510132516 | 12 | 0 | 12.9 | 25.7 | 0.00 | 0.00 | 0.00 | 64 | 1021.4 |
| 20260510131556 | 12 | 0 | 14.5 | 24.1 | 0.00 | 0.00 | 0.00 | 64 | 1020.9 |
| 20260510130515 | 12 | 0 | 14.5 | 32.2 | 0.00 | 0.00 | 0.00 | 64 | 1020.7 |
| 20260510125556 | 12 | 0 | 12.9 | 25.7 | 0.00 | 0.00 | 0.00 | 65 | 1020.6 |
| 20260510123515 | 12 | 0 | 14.5 | 24.1 | 0.00 | 0.00 | 0.00 | 66 | 1020.4 |
| 20260510122556 | 12 | 0 | 11.3 | 22.5 | 0.00 | 0.00 | 0.00 | 65 | 1020.3 |
| 20260510121515 | 12 | 0 | 14.5 | 29.0 | 0.00 | 0.00 | 0.00 | 65 | 1020.0 |
| 20260510120515 | 12 | 0 | 12.9 | 24.1 | 0.00 | 0.00 | 0.00 | 65 | 1019.9 |
| 20260510115555 | 12 | 0 | 12.9 | 27.4 | 0.00 | 0.00 | 0.00 | 64 | 1019.7 |
| 20260510113515 | 12 | 0 | 17.7 | 30.6 | 0.00 | 0.00 | 0.00 | 64 | 1019.5 |
| 20260510112515 | 12 | 0 | 16.1 | 43.5 | 0.00 | 0.00 | 0.00 | 63 | 1019.3 |
| 20260510111515 | 12 | 0 | 20.9 | 37.0 | 0.00 | 0.00 | 0.00 | 63 | 1018.9 |
| 20260510110515 | 12 | 0 | 25.7 | 37.0 | 0.00 | 0.00 | 0.00 | 62 | 1018.7 |
| 20260510105515 | 13 | 0 | 25.7 | 38.6 | 0.00 | 0.00 | 0.00 | 61 | 1018.9 |
| 20260510104515 | 13 | 0 | 24.1 | 38.6 | 0.00 | 0.00 | 0.00 | 61 | 1019.0 |
| 20260510102516 | 15 | 0 | 25.7 | 38.6 | 0.00 | 0.00 | 0.00 | 58 | 1018.5 |
| 20260510101555 | 15 | 0 | 20.9 | 37.0 | 0.00 | 0.00 | 0.00 | 58 | 1018.4 |
| 20260510100519 | 15 | 0 | 20.9 | 35.4 | 0.00 | 0.00 | 0.00 | 57 | 1018.0 |
| 20260510093515 | 16 | 0 | 19.3 | 40.2 | 0.00 | 0.00 | 0.00 | 52 | 1017.4 |
| 20260510092515 | 17 | 0 | 20.9 | 37.0 | 0.00 | 0.00 | 0.00 | 51 | 1017.6 |
| 20260510091515 | 17 | 0 | 25.7 | 38.6 | 0.00 | 0.00 | 0.00 | 50 | 1017.3 |
| 20260510090515 | 17 | 0 | 25.7 | 48.3 | 0.00 | 0.00 | 0.00 | 48 | 1017.7 |
| 20260510085515 | 18 | 0 | 25.7 | 45.1 | 0.00 | 0.00 | 0.00 | 44 | 1017.2 |
| 20260510084515 | 18 | 0 | 25.7 | 49.9 | 0.00 | 0.00 | 0.00 | 40 | 1017.3 |
| 20260510083515 | 19 | 0 | 19.3 | 32.2 | 0.00 | 0.00 | 0.00 | 38 | 1016.8 |
| 20260510082635 | 20 | 0 | 22.5 | 32.2 | 0.00 | 0.00 | 0.00 | 37 | 1016.3 |
| 20260510081515 | 19 | 0 | 19.3 | 30.6 | 0.00 | 0.00 | 0.00 | 37 | 1015.7 |
| 20260510080635 | 20 | 0 | 14.5 | 20.9 | 0.00 | 0.00 | 0.00 | 35 | 1016.2 |
| 20260510075555 | 20 | 0 | 14.5 | 29.0 | 0.00 | 0.00 | 0.00 | 34 | 1016.7 |
| 20260510074515 | 21 | 0 | 11.3 | 22.5 | 0.00 | 0.00 | 0.00 | 33 | 1016.9 |
| 20260510073555 | 21 | 0 | 9.7 | 17.7 | 0.00 | 0.00 | 0.00 | 32 | 1016.9 |
| 20260510072515 | 21 | 0 | 12.9 | 20.9 | 0.00 | 0.00 | 0.00 | 30 | 1017.0 |
| 20260510071515 | 21 | 0 | 9.7 | 19.3 | 0.00 | 0.00 | 0.00 | 30 | 1016.9 |
| 20260510070555 | 22 | 0 | 12.9 | 27.4 | 0.00 | 0.00 | 0.00 | 29 | 1017.0 |
| 20260510064515 | 22 | 0 | 19.3 | 46.7 | 0.00 | 0.00 | 0.00 | 29 | 1017.8 |
| 20260510063515 | 22 | 0 | 22.5 | 33.8 | 0.00 | 0.00 | 0.00 | 29 | 1017.2 |
| 20260510062555 | 22 | 0 | 16.1 | 27.4 | 0.00 | 0.00 | 0.00 | 28 | 1016.7 |
| 20260510061557 | 22 | 0 | 11.3 | 24.1 | 0.00 | 0.00 | 0.00 | 28 | 1016.4 |
| 20260510060517 | 22 | 0 | 6.4 | 19.3 | 0.00 | 0.00 | 0.00 | 29 | 1016.2 |
| 20260510055516 | 22 | 0 | 11.3 | 19.3 | 0.00 | 0.00 | 0.00 | 28 | 1015.8 |
| 20260510054516 | 22 | 0 | 9.7 | 20.9 | 0.00 | 0.00 | 0.00 | 28 | 1015.3 |
| 20260510053516 | 22 | 0 | 11.3 | 19.3 | 0.00 | 0.00 | 0.00 | 27 | 1015.2 |
| 20260510052516 | 22 | 0 | 12.9 | 24.1 | 0.00 | 0.00 | 0.00 | 26 | 1015.1 |
| 20260510051636 | 22 | 0 | 6.4 | 16.1 | 0.00 | 0.00 | 0.00 | 28 | 1014.6 |
| 20260510050636 | 22 | 0 | 4.8 | 14.5 | 0.00 | 0.00 | 0.00 | 27 | 1015.0 |
| 20260510045636 | 22 | 0 | 6.4 | 16.1 | 0.00 | 0.00 | 0.00 | 28 | 1014.5 |
| 20260510044516 | 21 | 0 | 6.4 | 12.9 | 0.00 | 0.00 | 0.00 | 28 | 1014.4 |
| 20260510043636 | 22 | 0 | 6.4 | 14.5 | 0.00 | 0.00 | 0.00 | 27 | 1014.4 |
| 20260510042556 | 22 | 0 | 4.8 | 9.7 | 0.00 | 0.00 | 0.00 | 26 | 1014.3 |
| 20260510041516 | 23 | 0 | 1.6 | 14.5 | 0.00 | 0.00 | 0.00 | 25 | 1014.0 |
| 20260510040556 | 23 | 0 | 6.4 | 12.9 | 0.00 | 0.00 | 0.00 | 25 | 1014.0 |
| 20260510035516 | 23 | 0 | 9.7 | 20.9 | 0.00 | 0.00 | 0.00 | 25 | 1013.8 |
| 20260510033515 | 23 | 0 | 6.4 | 22.5 | 0.00 | 0.00 | 0.00 | 25 | 1013.8 |
| 20260510032636 | 24 | 0 | 11.3 | 22.5 | 0.00 | 0.00 | 0.00 | 24 | 1013.4 |
| 20260510031515 | 24 | 0 | 9.7 | 20.9 | 0.00 | 0.00 | 0.00 | 24 | 1013.1 |
| 20260510024636 | 25 | 0 | 8.0 | 17.7 | 0.00 | 0.00 | 0.00 | 22 | 1012.3 |
| 20260510022555 | 25 | 0 | 8.0 | 16.1 | 0.00 | 0.00 | 0.00 | 21 | 1011.5 |
| 20260510020515 | 26 | 0 | 8.0 | 22.5 | 0.00 | 0.00 | 0.00 | 19 | 1011.2 |
| 20260510015555 | 27 | 0 | 8.0 | 19.3 | 0.00 | 0.00 | 0.00 | 18 | 1011.2 |
| 20260510014635 | 26 | 0 | 14.5 | 30.6 | 0.00 | 0.00 | 0.00 | 20 | 1010.9 |
| 20260510013555 | 26 | 0 | 17.7 | 37.0 | 0.00 | 0.00 | 0.00 | 20 | 1010.4 |
| 20260510012515 | 27 | 0 | 25.7 | 38.6 | 0.00 | 0.00 | 0.00 | 19 | 1009.9 |
| 20260510010515 | 27 | 0 | 20.9 | 29.0 | 0.00 | 0.00 | 0.00 | 18 | 1009.4 |
| 20260510005516 | 28 | 0 | 19.3 | 37.0 | 0.00 | 0.00 | 0.00 | 17 | 1009.0 |
| 20260510004555 | 29 | 0 | 9.7 | 17.7 | 0.00 | 0.00 | 0.00 | 13 | 1008.5 |
| 20260510003555 | 30 | 0 | 4.8 | 12.9 | 0.00 | 0.00 | 0.00 | 13 | 1008.2 |
| 20260510001635 | 29 | 0 | 12.9 | 19.3 | 0.00 | 0.00 | 0.00 | 13 | 1007.8 |
| 20260509235515 | 30 | 0 | 3.2 | 6.4 | 0.00 | 0.00 | 0.00 | 14 | 1008.1 |
| 20260509234515 | 30 | 0 | 0.0 | 4.8 | 0.00 | 0.00 | 0.00 | 14 | 1008.2 |
| 20260509233515 | 30 | 0 | 4.8 | 8.0 | 0.00 | 0.00 | 0.00 | 13 | 1008.3 |
| 20260509232515 | 30 | 0 | 4.8 | 8.0 | 0.00 | 0.00 | 0.00 | 13 | 1008.4 |
| 20260509231515 | 30 | 0 | 3.2 | 9.7 | 0.00 | 0.00 | 0.00 | 13 | 1008.4 |
| 20260509225515 | 31 | 0 | 3.2 | 14.5 | 0.00 | 0.00 | 0.00 | 13 | 1008.7 |
| 20260509224515 | 31 | 0 | 4.8 | 12.9 | 0.00 | 0.00 | 0.00 | 14 | 1008.9 |
| 20260509223515 | 31 | 0 | 1.6 | 9.7 | 0.00 | 0.00 | 0.00 | 13 | 1008.9 |
| 20260509222515 | 32 | 0 | 1.6 | 14.5 | 0.00 | 0.00 | 0.00 | 13 | 1009.0 |
| 20260509221555 | 31 | 0 | 8.0 | 16.1 | 0.00 | 0.00 | 0.00 | 14 | 1008.9 |
| 20260509215555 | 31 | 0 | 9.7 | 19.3 | 0.00 | 0.00 | 0.00 | 14 | 1009.1 |
| 20260509214515 | 31 | 0 | 9.7 | 20.9 | 0.00 | 0.00 | 0.00 | 14 | 1009.2 |
| 20260509213515 | 31 | 0 | 11.3 | 29.0 | 0.00 | 0.00 | 0.00 | 14 | 1009.3 |
| 20260509212515 | 31 | 0 | 4.8 | 19.3 | 0.00 | 0.00 | 0.00 | 14 | 1009.6 |
| 20260509211635 | 31 | 0 | 3.2 | 12.9 | 0.00 | 0.00 | 0.00 | 14 | 1009.9 |
| 20260509210515 | 31 | 0 | 3.2 | 12.9 | 0.00 | 0.00 | 0.00 | 15 | 1010.2 |
| 20260509205517 | 31 | 0 | 4.8 | 12.9 | 0.00 | 0.00 | 0.00 | 16 | 1010.5 |
| 20260509204557 | 30 | 0 | 8.0 | 17.7 | 0.00 | 0.00 | 0.00 | 15 | 1010.7 |
| 20260509203557 | 30 | 0 | 4.8 | 14.5 | 0.00 | 0.00 | 0.00 | 16 | 1011.0 |
| 20260509202557 | 30 | 0 | 4.8 | 16.1 | 0.00 | 0.00 | 0.00 | 17 | 1011.4 |
| 20260509201517 | 30 | 0 | 8.0 | 14.5 | 0.00 | 0.00 | 0.00 | 16 | 1011.4 |
| 20260509200516 | 30 | 0 | 3.2 | 12.9 | 0.00 | 0.00 | 0.00 | 16 | 1011.7 |
| 20260509194516 | 30 | 0 | 11.3 | 24.1 | 0.00 | 0.00 | 0.00 | 16 | 1012.0 |
| 20260509193637 | 30 | 0 | 11.3 | 20.9 | 0.00 | 0.00 | 0.00 | 16 | 1011.9 |
| 20260509192635 | 30 | 0 | 14.5 | 25.7 | 0.00 | 0.00 | 0.00 | 15 | 1012.1 |
| 20260509191516 | 30 | 0 | 6.4 | 16.1 | 0.00 | 0.00 | 0.00 | 18 | 1012.3 |
| 20260509190556 | 29 | 0 | 3.2 | 16.1 | 0.00 | 0.00 | 0.00 | 19 | 1012.3 |
| 20260509185516 | 28 | 0 | 6.4 | 19.3 | 0.00 | 0.00 | 0.00 | 19 | 1012.6 |
| 20260509184516 | 28 | 0 | 6.4 | 17.7 | 0.00 | 0.00 | 0.00 | 22 | 1012.7 |
| 20260509183517 | 27 | 0 | 4.8 | 19.3 | 0.00 | 0.00 | 0.00 | 24 | 1013.0 |
| 20260509182556 | 27 | 0 | 6.4 | 14.5 | 0.00 | 0.00 | 0.00 | 25 | 1013.1 |
| 20260509180516 | 26 | 0 | 6.4 | 17.7 | 0.00 | 0.00 | 0.00 | 25 | 1013.8 |